Theta_e
282 282 283 283 283 283 283 283 283 284 284 283 284 284 285 287 290 289 289 291 294 296 300 302 302 304 301 300 300 300 298 298 296 289 290 292 291 291 290 290 291 290 290
281 282 282 283 282 282 282 282 283 283 283 282 283 283 284 286 288 288 288 288 290 292 295 298 300 301 301 301 299 299 298 297 296 288 288 289 289 291 290 289 290 289 288
281 281 281 281 281 281 281 281 282 281 281 281 282 282 283 284 287 288 288 288 289 290 293 295 298 299 299 299 298 298 297 295 294 289 287 290 289 290 288 288 287 286 286
281 281 281 280 281 281 281 281 280 280 280 280 280 280 281 284 285 287 288 288 288 290 292 294 296 298 298 298 296 296 295 294 292 290 287 288 288 288 288 285 283 284 283
280 280 280 281 281 280 280 279 279 279 280 279 279 280 282 283 284 286 288 288 287 287 290 292 294 295 293 296 296 294 293 292 290 288 286 286 286 285 285 284 284 282 280
279 280 280 280 279 279 278 278 278 278 278 277 278 280 280 282 285 286 288 288 287 287 288 290 292 292 292 293 294 294 294 292 290 289 287 286 286 286 285 284 282 280 279
280 280 280 279 278 277 277 277 277 276 276 276 278 279 280 281 284 286 287 288 287 286 288 289 290 293 290 294 293 293 292 293 293 291 287 287 286 286 286 283 282 281 280
279 278 278 277 276 276 276 276 275 275 274 275 276 277 279 280 284 285 287 288 287 286 288 289 289 291 291 292 291 291 290 291 291 291 291 289 289 287 287 285 283 278 276
273 274 275 275 274 274 274 273 273 273 274 274 276 277 277 280 283 285 286 286 286 284 287 288 289 291 290 291 290 287 287 286 291 291 290 290 289 289 285 283 279 278 276
272 273 273 273 273 271 271 272 273 273 275 276 275 277 278 279 283 284 285 285 285 284 286 286 286 287 290 291 287 285 284 284 284 285 286 288 287 286 286 284 281 279 276
271 271 271 271 269 270 270 271 272 272 272 272 273 275 277 279 280 283 284 284 284 284 284 285 286 287 288 291 288 286 286 285 286 283 279 279 278 278 277 278 280 280 276
269 268 268 267 268 269 269 269 270 270 270 270 273 273 276 277 280 281 283 285 286 284 284 285 285 287 288 288 286 287 288 286 282 280 278 276 275 274 274 274 273 273 272
267 265 265 267 268 269 268 268 268 269 269 271 272 272 273 276 278 281 282 284 285 285 285 286 287 287 287 287 287 287 285 283 281 279 278 276 275 273 272 271 271 270 269
264 264 265 266 266 267 268 268 267 267 268 270 270 272 273 274 276 278 279 281 283 285 285 285 285 286 286 286 285 286 284 283 282 280 278 275 273 272 272 273 271 272 270
263 264 265 265 265 265 266 266 268 270 271 270 272 273 273 273 275 279 280 280 281 284 285 284 283 283 283 283 284 284 284 283 281 279 276 274 272 272 272 272 272 271 270
261 262 262 262 263 263 264 264 269 271 273 274 275 275 276 277 278 280 280 281 283 285 284 282 282 283 282 283 282 282 282 282 281 279 277 275 273 272 272 272 272 272 270
258 259 260 261 261 261 262 262 261 265 270 271 273 274 275 276 277 277 278 281 283 285 283 282 282 282 282 283 282 282 281 282 281 279 277 276 274 273 272 272 272 273 270
255 257 258 259 260 260 260 261 261 261 261 263 268 270 272 273 273 276 277 278 277 283 283 282 282 283 282 282 282 282 281 280 280 279 277 276 275 274 273 273 273 273 270
256 257 258 258 258 258 259 259 260 261 261 261 262 265 266 268 272 272 272 269 271 273 282 283 283 283 283 283 283 282 281 280 280 279 278 277 276 275 274 274 274 272 268
253 255 257 256 256 256 257 258 259 260 260 260 260 260 260 265 262 261 263 265 267 269 270 283 284 284 283 283 282 282 281 280 280 279 278 277 277 277 275 274 274 270 269
252 254 255 254 254 255 257 257 258 258 258 258 257 259 267 262 258 259 260 261 263 266 268 268 283 284 284 283 283 282 282 281 281 280 278 277 277 276 276 275 273 271 267
249 251 252 252 254 254 254 255 256 256 256 255 256 256 263 257 257 257 258 259 261 263 266 268 269 284 284 283 283 283 282 281 280 280 278 277 276 276 274 272 270 268 266
247 249 252 251 250 251 251 250 252 254 254 254 254 254 255 255 256 256 257 258 260 262 264 267 268 281 285 285 285 284 282 281 281 280 278 276 275 274 272 270 269 267 266
246 247 249 251 249 249 248 249 250 251 252 253 252 253 253 254 255 255 256 258 260 261 264 265 269 275 285 285 285 285 284 283 282 279 278 276 274 273 272 270 269 267 265
245 248 249 250 248 247 246 246 248 249 251 252 252 252 253 254 254 255 256 258 260 262 263 266 269 275 285 285 284 284 284 282 280 278 277 276 274 273 272 270 268 266 264
247 249 249 249 248 247 245 244 245 247 249 251 252 253 253 254 255 256 257 258 261 262 264 266 269 273 285 284 284 283 281 280 277 277 276 275 273 273 271 269 267 265 264
Wind_Speed
6 7 8 10 11 10 10 11 12 13 14 15 15 16 16 16 15 14 18 18 16 15 14 12 14 12 7 8 9 9 10 10 11 2 2 5 8 11 8 6 6 5 3
6 7 9 9 10 11 11 12 12 13 14 14 15 15 16 16 16 15 16 19 18 16 15 15 13 9 11 10 9 13 11 11 8 9 3 4 5 12 11 9 6 5 3
6 7 8 10 10 12 13 13 13 13 13 15 14 15 16 16 17 15 15 17 18 18 16 15 15 12 11 9 10 11 9 9 8 5 4 3 2 9 8 6 6 5 3
6 7 8 9 10 11 13 13 13 13 13 14 15 15 15 16 17 17 15 15 17 16 16 16 16 15 14 13 10 11 10 10 9 8 5 7 5 6 7 8 5 2 3
6 7 9 9 9 11 12 14 14 13 13 14 15 15 14 15 13 18 17 17 17 19 16 15 16 16 16 17 10 10 10 9 9 9 7 5 6 8 11 5 4 4 1
6 8 8 9 10 11 12 13 13 14 14 14 14 15 18 13 26 29 23 16 17 18 16 15 15 17 14 19 20 19 18 14 12 9 8 11 10 10 6 9 7 5 4
6 7 7 8 11 13 13 13 14 14 14 14 14 14 18 19 27 30 30 16 15 17 16 14 14 12 11 12 18 19 18 20 20 14 12 11 10 11 11 10 8 5 2
6 6 8 9 11 13 13 12 14 12 14 14 15 15 16 17 29 30 30 18 14 17 15 14 15 15 11 12 12 12 12 12 11 9 12 10 8 12 13 8 8 7 5
5 6 8 10 12 12 13 13 13 13 13 14 14 16 16 17 28 30 26 17 14 17 13 13 14 14 12 17 13 12 9 7 11 13 14 17 19 20 16 11 7 8 3
5 8 9 10 11 12 13 13 11 11 14 12 16 14 16 17 25 29 26 13 14 12 12 11 15 13 16 20 12 13 13 11 11 11 12 15 16 16 18 8 10 10 4
7 8 9 9 11 12 12 11 12 13 13 13 15 14 14 14 18 27 28 15 12 12 9 9 8 14 14 17 16 12 12 12 15 11 11 9 8 8 5 4 4 6 4
7 9 9 10 9 9 11 11 11 11 12 12 13 13 10 12 18 23 28 27 25 13 11 8 7 12 15 15 11 13 21 16 9 9 9 8 8 6 5 5 6 6 5
8 9 10 10 10 9 11 12 10 9 8 11 11 11 13 11 12 25 26 29 27 17 10 10 15 13 15 12 12 18 17 9 9 9 8 7 6 7 9 8 9 10 10
9 9 9 10 11 9 8 8 9 8 9 10 10 11 13 13 12 13 14 15 21 15 11 8 8 8 9 7 8 12 7 8 9 9 8 8 9 7 8 6 7 6 6
8 9 10 8 10 11 9 9 9 9 10 11 10 11 12 14 13 25 23 16 16 18 13 4 1 2 4 5 5 6 5 7 7 7 8 9 8 8 7 5 6 4 4
10 8 8 9 9 8 9 11 13 18 20 22 24 19 11 24 30 31 32 33 31 30 5 4 3 3 5 6 5 5 5 8 7 8 8 9 8 8 8 6 5 3 6
8 10 8 9 8 9 9 9 13 12 18 20 21 23 25 26 29 31 31 31 30 23 5 4 3 3 3 5 6 6 5 5 8 8 8 8 9 8 10 8 6 6 6
7 10 7 7 8 8 8 9 8 9 13 11 16 21 21 26 28 29 28 25 11 10 5 4 4 4 4 4 5 5 5 6 7 7 8 8 9 9 9 8 8 6 5
7 6 7 7 7 8 9 8 8 9 9 10 10 14 12 24 27 24 23 8 10 10 10 5 4 5 5 5 5 6 7 7 7 7 7 8 8 8 8 8 7 9 6
5 8 8 6 7 7 7 8 8 8 9 9 9 10 12 14 12 13 10 10 10 9 10 10 5 5 6 7 6 6 6 7 7 7 7 7 7 8 8 9 8 9 6
4 6 8 6 6 6 7 7 8 8 8 9 9 10 24 12 10 11 11 10 10 10 11 10 9 7 7 7 7 7 8 8 7 7 8 8 9 8 7 7 7 7 7
3 5 5 5 6 6 6 6 7 7 8 8 10 11 22 8 8 9 11 10 11 11 10 11 12 7 7 8 8 7 8 8 8 8 8 8 8 8 8 8 8 7 8
3 4 5 4 4 7 6 5 6 6 8 8 8 9 9 9 9 10 11 12 11 12 11 11 10 11 6 8 8 9 9 9 9 9 9 9 8 8 8 9 9 9 8
3 3 4 4 4 4 5 6 6 7 8 8 8 8 9 9 10 12 12 11 11 12 11 11 10 18 7 8 7 8 8 8 8 10 13 11 10 11 9 9 9 11 9
3 3 3 4 4 5 6 5 6 6 7 7 8 8 9 9 10 11 11 11 12 12 13 13 11 16 10 12 11 11 12 15 12 13 9 11 12 13 11 9 11 10 9
3 3 3 3 4 4 4 5 5 6 7 8 8 8 9 9 10 11 11 12 12 13 15 11 14 21 10 10 12 13 15 16 14 16 11 10 11 10 9 11 14 10 12
Wind_Direction
302 304 309 313 315 314 312 313 315 313 316 316 316 314 313 315 319 317 314 311 306 300 292 277 267 252 227 217 211 208 202 193 203 155 152 172 161 167 164 153 157 142 167
286 296 304 307 311 313 313 312 313 312 313 312 312 310 310 311 313 314 309 308 306 301 295 285 267 253 235 223 209 213 210 205 196 169 149 153 165 180 154 154 152 130 151
290 295 301 306 310 312 311 311 311 313 310 310 310 309 308 308 309 310 305 302 305 301 295 287 280 259 244 232 219 217 205 199 180 152 134 132 120 171 149 134 130 114 130
287 290 294 299 305 307 309 308 312 312 308 310 309 306 305 304 306 306 309 304 300 296 293 288 280 266 244 240 218 215 199 199 183 161 146 148 158 167 141 139 131 115 140
282 288 291 295 300 306 308 310 309 307 307 308 308 305 306 307 304 310 310 306 300 299 291 285 281 269 246 234 216 204 189 189 174 163 153 141 166 164 166 145 133 134 178
277 281 291 301 307 308 309 309 305 309 309 310 304 307 310 306 305 309 306 305 300 292 291 288 280 274 247 232 217 205 192 191 184 179 168 172 177 163 145 154 133 160 212
264 281 292 303 306 307 307 304 309 310 307 303 303 304 305 304 307 309 310 304 300 289 284 284 283 270 243 235 221 204 203 201 189 174 172 175 161 167 150 156 162 147 174
270 287 301 305 305 305 303 306 307 306 302 301 301 302 306 304 306 308 311 307 300 290 285 283 276 270 232 222 208 192 190 179 175 174 176 163 158 152 162 161 152 113 87
291 293 305 307 303 302 303 305 304 305 305 303 303 304 302 299 307 311 313 311 301 294 289 285 280 267 230 207 201 190 176 164 164 152 136 138 146 147 141 126 149 148 133
305 303 302 298 295 300 297 300 300 299 296 300 299 295 295 300 306 310 317 309 303 301 289 279 270 265 230 208 188 176 169 166 151 150 143 139 140 145 144 149 158 161 117
298 293 296 294 293 291 292 296 299 300 298 297 296 296 299 300 307 311 316 315 309 304 289 288 268 249 243 207 187 183 173 150 147 137 118 114 103 98 94 91 133 144 131
297 294 295 295 293 295 294 296 296 296 298 301 300 305 303 306 310 314 316 317 319 312 290 282 263 244 222 199 182 166 148 137 137 137 128 125 120 112 105 95 86 80 64
304 300 297 296 293 293 299 301 302 300 298 300 308 309 309 315 312 314 317 319 319 313 293 272 267 238 216 191 176 160 146 145 144 141 142 129 127 122 116 103 88 89 74
300 303 303 302 306 302 298 295 294 298 300 305 306 304 309 308 308 318 317 315 315 308 300 283 256 225 199 176 162 161 159 155 154 150 140 115 119 133 131 123 122 124 93
305 304 304 304 307 304 298 297 293 288 293 298 300 303 304 304 309 312 314 315 310 308 298 267 231 184 162 154 157 156 145 144 146 134 135 126 132 142 130 122 135 140 104
309 308 309 305 306 302 304 306 297 300 306 308 305 303 302 303 308 315 316 312 309 308 280 247 221 192 179 161 159 151 157 152 145 138 135 141 146 144 139 136 139 120 129
299 304 302 302 302 305 308 307 313 317 311 313 313 313 311 307 318 317 315 315 310 303 246 235 215 187 188 169 163 162 162 152 143 143 146 147 144 147 149 155 155 142 120
291 288 285 296 301 303 302 304 303 305 315 320 319 316 319 322 320 318 324 321 320 317 255 237 212 185 172 176 164 157 141 145 151 147 146 148 153 152 156 162 165 153 129
302 298 299 298 295 296 298 299 301 302 305 306 312 315 322 322 320 330 330 323 321 319 305 240 215 191 178 176 172 160 163 163 154 147 147 152 154 154 159 162 158 148 126
283 282 300 299 302 302 301 304 308 311 311 311 315 316 322 321 336 330 329 324 319 318 315 295 212 197 188 182 176 171 162 161 162 156 155 153 153 160 163 158 162 155 152
288 300 302 300 300 302 307 307 307 310 308 308 307 311 322 339 319 315 318 316 315 312 312 307 287 201 189 183 179 180 177 173 168 159 157 157 159 157 153 158 148 143 132
283 293 299 300 307 309 308 308 310 307 306 307 309 310 327 321 313 310 309 307 306 301 298 297 301 236 194 184 182 178 175 170 167 161 157 155 154 155 152 145 140 138 140
292 299 305 298 298 307 311 298 306 309 308 307 308 311 319 317 314 311 308 307 306 304 302 298 293 279 194 184 184 183 176 176 174 163 158 159 157 153 152 151 147 143 153
301 294 302 306 314 317 310 310 312 309 311 311 312 311 309 311 310 308 306 306 305 304 302 298 290 287 203 187 186 185 177 165 163 167 158 158 158 156 153 148 152 153 140
308 306 317 321 321 321 318 312 315 316 315 312 312 310 310 310 310 309 307 306 307 306 305 304 294 285 213 191 184 180 166 158 157 157 152 154 155 155 151 148 146 137 137
308 305 307 314 321 324 322 314 317 316 317 315 312 311 310 311 309 309 311 312 314 313 314 308 300 306 216 193 179 165 158 153 151 154 147 150 151 149 147 143 143 142 142